Zurück zum Katalog

STARLINK-3872

AktivKommunikationVLEO
NORAD 52453·PAYLOAD·🇺🇸 United States

Gestartet May 6, 2022 von Cape Canaveral Space Force Station

Loading…

Nächste Überflüge (nächste 24 Stunden)

TLE

AktuellSource: CelesTrak SupGP

Epoche: Sep 14, 2026, 13:02 UTC

1 52453C 22049C   26257.54354167  .00021987  00000+0  62905-3 0  2571
2 52453  53.1602 297.4471 0001273  76.4855  93.8025 15.35388924    16

Verfolge STARLINK-3872 in Echtzeit mit AllMySat

Download on the App Store